Renton, WA
on Friday, November 30, 2012

Friday
Previous Day Next Day
Daily Summary
 ActualAverage (KSEA)Record (KSEA)
Temperature
Mean Temperature °F 42°F  
Max Temperature 61°F 48°F 59°F (2012)
Min Temperature 48°F 37°F 21°F (1985)
Degree Days
Heating Degree Days 10 23  
Month to date heating degree days 587  
Since 1 July heating degree days 1183  
Cooling Degree Days 0 0  
Month to date cooling degree days 0  
Year to date cooling degree days 189  
Growing Degree Days4 (Base °F )  
Moisture
Dew Point 46°F   
Average Humidity 78    
Maximum Humidity 88    
Minimum Humidity 52    
Precipitation
Precipitation 0.96 in 0.22 in 1.50 in (1964)
Month to date precipitation 6.57  
Year to date precipitation 32.14  
Snow
Snow 0.00 in in 1.00 in (1950)
Month to date snowfall  
Since 1 July snowfall  
Snow Depth in   
Wind
Wind Speed 5 mph   
Max Wind Speed 17 mph   
Max Gust Speed 28 mph   
Visibility 7 miles   
Events Rain   

Key: T is trace of precipitation, MM is missing value
Source: NWS Daily Summary
Time(PST)TemperatureDew PointHumidity Pressure Visibility Wind DirectionWind SpeedGust SpeedPrecipitationEvents Conditions
12:53 AM 48.9°F 43.0°F 80% 29.47 in 5.0 miles Variable 4.6 mph - 0.09 in Rain Rain
1:53 AM 48.9°F 45.0°F 86% 29.45 in 10.0 miles East 3.5 mph - 0.10 in Rain Light Rain
2:53 AM 50.0°F 44.1°F 80% 29.43 in 10.0 miles Variable 3.5 mph - 0.01 in   Overcast
3:53 AM 50.0°F 45.0°F 83% 29.42 in 8.0 miles Variable 3.5 mph - 0.01 in Rain Light Rain
4:53 AM 48.9°F 44.1°F 83% 29.42 in 10.0 miles SSE 4.6 mph - 0.01 in   Scattered Clouds
5:53 AM 50.0°F 43.0°F 77% 29.39 in 10.0 miles South 3.5 mph - N/A   Scattered Clouds
6:53 AM 50.0°F 44.1°F 80% 29.39 in 10.0 miles SE 4.6 mph - 0.00 in   Overcast
7:53 AM 50.0°F 44.1°F 80% 29.43 in 10.0 miles SE 4.6 mph - 0.00 in Rain Light Rain
8:53 AM 51.1°F 44.1°F 77% 29.44 in 10.0 miles SSE 5.8 mph - 0.00 in   Mostly Cloudy
9:53 AM 53.1°F 45.0°F 74% 29.43 in 10.0 miles SSE 5.8 mph - N/A   Scattered Clouds
10:53 AM 55.9°F 46.0°F 69% 29.44 in 10.0 miles SSE 6.9 mph - N/A   Mostly Cloudy
11:53 AM 61.0°F 43.0°F 52% 29.43 in 10.0 miles SSE 17.3 mph 27.6 mph 0.00 in   Scattered Clouds
12:53 PM 61.0°F 43.0°F 52% 29.42 in 10.0 miles SSE 10.4 mph 16.1 mph N/A   Mostly Cloudy
1:53 PM 60.1°F 44.1°F 55% 29.43 in 10.0 miles SSE 13.8 mph 24.2 mph 0.00 in Rain Light Rain
2:53 PM 57.9°F 46.0°F 65% 29.45 in 9.0 miles SSE 9.2 mph - 0.01 in Rain Light Rain
3:53 PM 54.0°F 48.0°F 80% 29.47 in 5.0 miles Calm Calm - 0.05 in Rain Light Rain
4:53 PM 53.1°F 48.9°F 86% 29.47 in 7.0 miles Calm Calm - 0.06 in Rain Light Rain
5:17 PM 53.6°F 48.2°F 82% 29.46 in 2.0 miles Variable 3.5 mph - 0.10 in Rain Heavy Rain
5:19 PM 53.6°F 48.2°F 82% 29.46 in 3.0 miles Calm Calm - 0.11 in Rain Heavy Rain
5:31 PM 53.6°F 48.2°F 82% 29.46 in 3.0 miles Calm Calm - 0.14 in Rain Rain
5:53 PM 53.1°F 48.0°F 83% 29.48 in 5.0 miles South 4.6 mph - 0.17 in Rain Rain
6:38 PM 51.8°F 48.2°F 88% 29.47 in 4.0 miles SE 4.6 mph - 0.15 in Rain Rain
6:53 PM 52.0°F 46.9°F 83% 29.49 in 5.0 miles SSE 4.6 mph - 0.18 in Rain Rain
6:55 PM 51.8°F 46.4°F 82% 29.47 in 5.0 miles SE 3.5 mph - 0.01 in Rain Rain
7:27 PM 51.8°F 46.4°F 82% 29.46 in 5.0 miles ESE 3.5 mph - 0.07 in Rain Rain
7:53 PM 51.8°F 46.4°F 82% 29.45 in 6.0 miles East 3.5 mph - N/A Rain Rain
8:53 PM 51.8°F 46.4°F 82% 29.45 in 4.0 miles Calm Calm - N/A Rain Rain
9:53 PM 51.1°F 46.9°F 86% 29.43 in 9.0 miles Calm Calm - 0.09 in Rain Light Rain
10:53 PM 51.1°F 46.9°F 86% 29.44 in 3.0 miles Calm Calm - 0.12 in Rain Rain
11:53 PM 52.0°F 46.9°F 83% 29.44 in 9.0 miles SE 5.8 mph - 0.06 in Rain Light Rain
Moon Phase
Nov. 30 Dec. 06 Dec. 13 Dec. 20 Dec. 28
Sunrise:07:35 AM (PST) Moon Rise:06:20 PM (PST)11/30
Sunset:04:20 PM (PST) Moon Set:09:10 AM (PST)11/30

Copyright © 2014 The Weather Underground, Inc.